OBJECT K, 51833

Orbit data source: Space-Track

You're viewing an Uncataloged Satellite

Recently launched and/or uncataloged satellites may have evolving metadata. Metadata may include but not limited to: Owner, Maufacturer, Bus, Motor, and Mission.

OBJECT K, 51833 is a satellite owned by Silu Tiantu (CN) in SSO that was launched on Sun, 27 Feb 2022 UTC via a CHANG ZHENG 8 launch vehicle from the Wenchang Satellite Launch Center (WSC). Unknown objects in Earth's orbit typically refer to objects detected orbiting the Earth but have not yet been identified or cataloged. These objects could be anything from previously untracked satellites, spent rocket stages, debris from satellite collisions, or even natural meteoroids temporarily captured by Earth's gravity.

Loading next visibility...
OBJECT K details
Identifier
51833, 2022-019K
Orbit
SSO
Last TLE update8 hours ago
Origin
Flag of CNSilu Tiantu (CN / PRC)
ManufacturerWeina
MissionNon-operational Commercial Imaging
Bus & MotorXD1, Unknown motor
Mass88 kg wet, 88 kg dry
Launch date (UTC)
2022-02-27 (3 years ago)
Launch vehicle
CHANG ZHENG 8
Launch site
Wenchang Satellite Launch Center (WSC)
Object typeUnknown
Shape & HBRHalf Oct Cyl, 0.5 m
Radar Cross Section0.091 m², Medium (>0.1 m² and < 1m²)

Expand to show TLE details & history

TLE from 8 hours ago
0 OBJECT K
1 51833U 22019K   25014.92982960  .00056176  00000-0  79112-3 0  9999
2 51833  97.4089 102.0212 0007218 171.9648 188.1724 15.56438728160266
Epoch: 2025-01-14T22:18Z
Definitive object data (Epoch: 2025-01-14T22:18:57.277Z)
Latitude
Longitude12.65308°
Altitude405.956 km
Speed7.664 km/s
True Right ascension06h 48m 05s
True Declination0° 00' 00"
Sunlit
Object was in full shadow at TLE epoch
Visualization TLE readout
Latitude70.28597°
Longitude-8.15378°
Altitude410.811 km
Speed7.67 km/s
Apparent Right ascension20h 12m 39s
Apparent Declination37° 58' 19"
Sunlit
Object is in full shadow
Visualization observer readout
Local Sidereal Time06:59:36
Azimuth345.456° N
Elevation-10.333°
Doppler factor1
Orbital elements
Apogee altitude399.78 km
Perigee altitude390.002 km
Semi-major axis6,773.028 km
Eccentricity0.0007218
Inclination97.4089°
RAAN102.0212°
Arg. of periapsis171.9648°
True anomaly188.16065°
Mean anomaly188.1724°
Eccentric anomaly188.16653°
Mean motion3.89376 °/min
BSTAR0.00079112
Orbital period92.46 mins
Loading maneuver chart data...
Loading historical data...
Loading historical data...
Loading historical data...
Loading historical data...
Loading historical data...
Loading historical data...
Loading historical data...

OBJECT K Visibility forecast

Observer location: undefined°, undefined

Span
Click to sort rows by Start time (UTC) header in descending order
Start Az.
Max El. time (UTC)
Max El. Az.
Max El.
End time (UTC)
End Az.
4 mins2025-01-15 18:56:14.734Z345.052° N2025-01-15 18:58:14.734Z277.18° WNW30.462°2025-01-15 19:00:14.734Z222.974° SW
|